Back to catalog

PELICAN-5 300C

AliveScienceSSO
NORAD 66667·PAYLOAD·🇺🇸 United States

Launched Nov 28, 2025 from Vandenberg Space Force Base

Loading…

Next Passes (next 24 hours)

TLE

FreshSource: CelesTrak SupGP

Epoch: Sep 14, 2026, 16:06 UTC

1 66667C 25276B   26257.67121528  .00025579  00000+0  73100-3 0  2575
2 66667  97.3917 332.8825 0001616 113.1047 268.1917 15.36022670    18

Track PELICAN-5 300C in real time with AllMySat

Download on the App Store